CW2220 Weather Reports


time (UTC)temp
C
wind
direction
speed
KPH
gust
KPH
rain 1hr
cm
rain 24hr
cm
rain mn
cm
humidity
%
barometer
mb
20260510114531 18 51 4.8 9.7 0.00 7.67 0.00 99 1013.8
20260510113040 18 48 4.8 8.0 0.00 7.67 0.00 99 1013.7
20260510111530 18 12 3.2 8.0 0.00 7.67 0.00 99 1013.3
20260510110048 18 5 4.8 11.3 0.00 7.67 0.00 99 1013.0
20260510104536 18 65 3.2 8.0 0.00 7.67 0.00 99 1012.9
20260510103039 18 36 3.2 6.4 0.00 7.67 0.00 99 1012.7
20260510101532 18 65 1.6 6.4 0.00 7.67 0.00 99 1012.4
20260510100039 18 59 1.6 4.8 0.00 7.67 0.00 99 1012.2
20260510094540 18 59 3.2 6.4 0.00 7.67 0.00 99 1012.2
20260510093039 18 54 1.6 9.7 0.00 7.67 0.00 99 1012.0
20260510091533 18 36 1.6 6.4 0.00 7.67 0.00 99 1012.1
20260510090030 19 80 1.6 6.4 0.00 7.67 0.00 98 1012.2
20260510084535 18 64 0.0 4.8 0.00 7.67 0.00 98 1012.3
20260510083037 18 64 1.6 4.8 0.00 7.67 0.00 98 1012.3
20260510081541 18 23 1.6 8.0 0.00 7.67 0.00 98 1012.1
20260510080051 18 0 1.6 4.8 0.00 7.67 0.00 98 1011.9
20260510074539 18 0 0.0 0.0 0.00 7.67 0.00 98 1011.9
20260510073039 18 0 0.0 0.0 0.00 7.67 0.00 98 1011.9
20260510071537 18 0 0.0 0.0 0.00 7.67 0.00 98 1011.7
20260510070045 18 0 0.0 0.0 0.00 7.67 0.00 97 1011.7
20260510064534 19 0 0.0 0.0 0.00 7.67 0.00 97 1011.8
20260510063039 19 0 0.0 0.0 0.00 7.67 0.00 97 1011.7
20260510061537 19 0 0.0 0.0 0.00 7.67 0.00 97 1011.9
20260510060044 20 0 0.0 0.0 0.00 7.67 0.00 97 1012.0
20260510054535 20 0 0.0 0.0 0.00 7.67 0.00 97 1011.9
20260510053035 20 0 0.0 0.0 0.00 7.67 0.00 96 1012.1
20260510051533 20 0 0.0 3.2 0.00 7.67 0.00 96 1011.9
20260510050035 20 25 1.6 4.8 0.00 7.67 0.00 96 1011.8
20260510044536 20 264 1.6 4.8 0.00 7.67 7.67 96 1012.0
20260510043036 21 0 0.0 6.4 0.00 7.67 7.67 96 1012.1
20260510041532 21 334 1.6 8.0 0.00 7.67 7.67 96 1012.0
20260510040033 21 137 3.2 11.3 0.00 7.67 7.67 96 1011.5
20260510034536 21 206 3.2 14.5 0.00 7.67 7.67 97 1011.7
20260510033046 20 195 8.0 17.7 0.00 7.67 7.67 97 1011.9
20260510031538 20 200 9.7 19.3 0.00 7.67 7.67 97 1011.6
20260510030034 20 171 9.7 16.1 0.00 7.67 7.67 97 1011.9
20260510024532 20 170 4.8 12.9 0.00 7.67 7.67 97 1012.4
20260510023037 20 151 4.8 9.7 0.00 7.67 7.67 97 1012.3
20260510021611 20 200 3.2 9.7 0.00 7.67 7.67 97 1012.2
20260510020036 20 174 1.6 6.4 0.00 7.67 7.67 96 1012.4
20260510014547 20 48 3.2 11.3 0.00 7.67 7.67 97 1012.4
20260510013033 20 175 1.6 11.3 0.00 7.67 7.67 97 1012.2
20260510011535 20 163 3.2 6.4 0.00 7.67 7.67 97 1011.9
20260510010043 21 16 1.6 14.5 0.00 7.67 7.67 97 1011.8
20260510004535 21 0 0.0 4.8 0.00 7.67 7.67 97 1011.5
20260510003034 21 0 0.0 6.4 0.00 7.67 7.67 97 1011.4
20260510001539 21 99 3.2 6.4 0.00 7.67 7.67 97 1011.5
20260510000033 21 150 3.2 9.7 0.00 7.67 7.67 98 1011.2
20260509234536 21 195 3.2 9.7 0.00 7.67 7.67 98 1010.9
20260509233035 20 0 3.2 9.7 0.00 7.67 7.67 99 1011.1
20260509231534 20 51 4.8 11.3 0.00 7.67 7.67 99 1010.7
20260509230039 20 50 3.2 11.3 0.00 7.67 7.67 99 1010.4
20260509224536 20 114 4.8 17.7 0.03 7.67 7.67 99 1010.2
20260509223038 20 45 3.2 14.5 0.05 7.67 7.67 99 1009.7
20260509221538 20 5 6.4 20.9 0.05 7.67 7.67 99 1009.3
20260509220034 20 76 6.4 17.7 0.20 7.67 7.67 99 1009.7
20260509214538 20 57 6.4 12.9 0.23 7.65 7.65 99 1009.9
20260509213037 20 72 3.2 14.5 0.23 7.62 7.62 99 1010.9
20260509211536 20 43 6.4 14.5 0.28 7.62 7.62 99 1010.6
20260509210039 20 180 1.6 6.4 0.23 7.47 7.47 99 1010.9
20260509204535 20 341 1.6 9.7 0.94 7.42 7.42 99 1011.3
20260509203037 20 350 3.2 14.5 2.92 7.39 7.39 99 1011.2
20260509201539 20 200 1.6 17.7 4.24 7.34 7.34 99 1010.4
20260509200037 20 81 0.0 19.3 4.72 7.21 7.21 99 1010.8
20260509194550 20 183 8.0 22.5 3.96 6.50 6.43 98 1011.2
20260509193035 20 35 3.2 12.9 1.93 4.45 4.37 98 1011.1
20260509191535 20 5 4.8 11.3 0.91 3.17 3.10 98 1011.2
20260509190036 20 202 3.2 12.9 0.51 2.57 2.49 98 1011.5
20260509184535 20 53 8.0 22.5 1.09 3.86 2.46 98 1010.8
20260509183032 20 44 8.0 19.3 2.11 3.84 2.44 98 1011.1
20260509181538 20 96 3.2 14.5 1.98 3.58 2.18 98 1011.3
20260509180049 20 347 1.6 12.9 1.83 3.35 1.96 97 1011.7
20260509174535 20 150 4.8 12.9 1.22 2.72 1.32 97 1012.0
20260509173050 20 189 1.6 11.3 0.23 1.73 0.33 97 1011.7
20260509171537 20 59 3.2 11.3 0.08 1.57 0.18 97 1011.1
20260509170040 20 69 3.2 14.5 0.03 1.52 0.13 96 1011.4
20260509164537 20 0 3.2 14.5 0.00 1.52 0.10 96 1011.4
20260509163036 20 5 4.8 12.9 0.00 1.52 0.10 96 1011.6
20260509161541 20 119 3.2 17.7 0.00 1.52 0.10 96 1011.1
20260509160036 20 82 6.4 17.7 0.00 1.52 0.10 95 1011.5
20260509154543 20 74 9.7 19.3 0.00 1.63 0.10 96 1011.7
20260509153051 20 61 6.4 17.7 0.00 1.63 0.10 97 1011.3
20260509151535 19 106 6.4 20.9 0.00 1.63 0.10 97 1011.3
20260509150033 20 93 6.4 17.7 0.10 1.63 0.10 97 1011.5
20260509144533 20 109 9.7 24.1 0.10 1.63 0.10 97 1011.2
20260509143040 20 31 11.3 22.5 0.10 1.63 0.10 97 1010.9
20260509141540 21 5 6.4 14.5 0.10 1.63 0.10 97 1010.7
20260509140047 21 46 6.4 16.1 0.00 1.52 0.00 97 1010.8
20260509134534 22 73 4.8 14.5 0.00 1.52 0.00 96 1010.9
20260509133031 24 0 0.0 4.8 0.00 1.52 0.00 98 1010.4
20260509131537 24 0 0.0 4.8 0.00 1.52 0.00 98 1010.7
20260509130036 24 209 1.6 4.8 0.00 1.52 0.00 98 1010.3
20260509124535 24 0 0.0 3.2 0.00 1.52 0.00 98 1010.4
20260509123034 23 0 0.0 3.2 0.00 1.52 0.00 98 1010.2
20260509121533 23 209 1.6 3.2 0.00 1.52 0.00 98 1010.2
20260509120030 23 0 0.0 0.0 0.00 1.52 0.00 98 1010.3